Find Starlink 5837

NORAD ID: 56346 Int'l Des: 2023-058 Owner: SPXS Country: US Constellation: starlink operational
LEOCIRCULARRETROGRADESSO

实时位置

正在加载3D地球...

关于 Starlink 5837

正在加载描述...

即将过境

Passes for default location (London). Set your location on the main map for personalized predictions.

高度历史

Loading altitude history...

两行轨道根数

1 56346U 23058AF 26106.74320517 .00000374 00000-0 30131-4 0 9992
2 56346 97.6052 107.6748 0001956 90.9533 269.1918 15.05646122163859
Epoch: Apr 16, 2026 • Age: 22 hours

当前状态

高度 578.9 km
速度 7.57 km/s
星下点 -79.61°S, 72.19°E
发射日期 Apr 27, 2023
运行时间 2.9 years
类型 internet

技术详情

分类 Payload
质量 300.00 kg
干质量 260.00 kg
总质量 300.00 kg
长度 0.20 m
直径 2.80 m
跨度 9.00 m
形状 Box + pan
制造商 SPXS
平台类型 Starlink
阶段状态 In Orbit
所有者/国家 SPXS/US

Most Searched